Time,TemperatureF,DewpointF,PressureIn,WindDirection,WindDirectionDegrees,WindSpeedMPH,WindSpeedGustMPH,Humidity,HourlyPrecipIn,Conditions,Clouds,dailyrainin,SoftwareType,DateUTC
2013-06-13 00:01:00,64.0,53.6,30.07,North,351,0.0,4.0,69,0.00,,SKC,0.00,VWS V13.01,2013-06-13 05:01:00,
2013-06-13 00:06:00,63.9,53.5,30.07,North,353,1.0,6.0,69,0.00,,SKC,0.00,VWS V13.01,2013-06-13 05:06:00,
2013-06-13 00:11:00,63.8,53.8,30.07,NW,318,0.0,5.0,70,0.00,,SKC,0.00,VWS V13.01,2013-06-13 05:11:00,
2013-06-13 00:16:00,63.8,53.8,30.07,West,281,0.0,5.0,70,0.00,,SKC,0.00,VWS V13.01,2013-06-13 05:16:00,
2013-06-13 00:21:00,63.7,53.7,30.07,NW,311,2.0,5.0,70,0.00,,SKC,0.00,VWS V13.01,2013-06-13 05:21:00,
2013-06-13 00:26:00,63.7,53.7,30.07,WNW,302,2.0,2.0,70,0.00,,SKC,0.00,VWS V13.01,2013-06-13 05:26:00,
2013-06-13 00:31:00,63.6,54.0,30.08,NW,309,5.0,9.0,71,0.00,,SKC,0.00,VWS V13.01,2013-06-13 05:31:00,
2013-06-13 00:36:00,63.6,54.0,30.08,NNW,332,0.0,2.0,71,0.00,,SKC,0.00,VWS V13.01,2013-06-13 05:36:00,
2013-06-13 00:41:00,63.5,53.9,30.08,NNE,21,0.0,2.0,71,0.00,,SKC,0.00,VWS V13.01,2013-06-13 05:41:00,
2013-06-13 00:46:00,63.4,53.8,30.08,NNW,331,0.0,2.0,71,0.00,,SKC,0.00,VWS V13.01,2013-06-13 05:46:00,
2013-06-13 00:51:00,63.3,54.1,30.08,NW,310,0.0,6.0,72,0.00,,SKC,0.00,VWS V13.01,2013-06-13 05:51:00,
2013-06-13 00:56:00,63.2,54.0,30.08,North,3,0.0,2.0,72,0.00,,SKC,0.00,VWS V13.01,2013-06-13 05:56:00,
2013-06-13 01:01:00,63.1,53.9,30.08,NNW,346,0.0,2.0,72,0.00,,SKC,0.00,VWS V13.01,2013-06-13 06:01:00,
2013-06-13 01:06:00,63.0,53.8,30.08,NW,313,6.0,11.0,72,0.00,,SKC,0.00,VWS V13.01,2013-06-13 06:06:00,
2013-06-13 01:11:00,63.0,53.8,30.07,NW,309,2.0,6.0,72,0.00,,SKC,0.00,VWS V13.01,2013-06-13 06:11:00,
2013-06-13 01:16:00,63.0,53.8,30.07,WNW,298,1.0,8.0,72,0.00,,SKC,0.00,VWS V13.01,2013-06-13 06:16:00,
2013-06-13 01:21:00,62.9,53.8,30.07,NNW,333,0.0,5.0,72,0.00,,SKC,0.00,VWS V13.01,2013-06-13 06:21:00,
2013-06-13 01:26:00,62.9,53.8,30.07,NW,316,0.0,7.0,72,0.00,,SKC,0.00,VWS V13.01,2013-06-13 06:26:00,
2013-06-13 01:31:00,62.8,53.7,30.07,North,354,4.0,9.0,72,0.00,,SKC,0.00,VWS V13.01,2013-06-13 06:31:00,
2013-06-13 01:36:00,62.8,54.0,30.07,WNW,300,9.0,9.0,73,0.00,,SKC,0.00,VWS V13.01,2013-06-13 06:36:00,
2013-06-13 01:41:00,62.7,53.9,30.07,NW,306,0.0,7.0,73,0.00,,SKC,0.00,VWS V13.01,2013-06-13 06:41:00,
2013-06-13 01:46:00,62.7,53.9,30.07,NW,311,0.0,8.0,73,0.00,,SKC,0.00,VWS V13.01,2013-06-13 06:46:00,
2013-06-13 01:51:00,62.7,53.9,30.08,WNW,300,0.0,0.0,73,0.00,,SKC,0.00,VWS V13.01,2013-06-13 06:51:00,
2013-06-13 01:56:00,62.7,54.3,30.08,WNW,303,4.0,7.0,74,0.00,,SKC,0.00,VWS V13.01,2013-06-13 06:56:00,
2013-06-13 02:01:00,62.6,54.2,30.07,NW,315,4.0,4.0,74,0.00,,SKC,0.00,VWS V13.01,2013-06-13 07:01:00,
2013-06-13 02:06:00,62.6,54.2,30.08,NW,314,0.0,2.0,74,0.00,,SKC,0.00,VWS V13.01,2013-06-13 07:06:00,
2013-06-13 02:11:00,62.5,54.1,30.08,NW,309,0.0,0.0,74,0.00,,SKC,0.00,VWS V13.01,2013-06-13 07:11:00,
2013-06-13 02:16:00,62.4,54.4,30.08,West,268,1.0,2.0,75,0.00,,SKC,0.00,VWS V13.01,2013-06-13 07:16:00,
2013-06-13 02:21:00,62.3,54.3,30.08,NW,307,4.0,4.0,75,0.00,,SKC,0.00,VWS V13.01,2013-06-13 07:21:00,
2013-06-13 02:26:00,62.3,54.3,30.08,WNW,302,0.0,2.0,75,0.00,,SKC,0.00,VWS V13.01,2013-06-13 07:26:00,
2013-06-13 02:31:00,62.2,54.5,30.09,WNW,301,0.0,0.0,76,0.00,,SKC,0.00,VWS V13.01,2013-06-13 07:31:00,
2013-06-13 02:36:00,62.2,54.5,30.09,NW,314,2.0,8.0,76,0.00,,SKC,0.00,VWS V13.01,2013-06-13 07:36:00,
2013-06-13 02:41:00,62.1,54.5,30.09,NW,313,0.0,0.0,76,0.00,,SKC,0.00,VWS V13.01,2013-06-13 07:41:00,
2013-06-13 02:46:00,62.1,54.5,30.10,WNW,293,0.0,7.0,76,0.00,,SKC,0.00,VWS V13.01,2013-06-13 07:46:00,
2013-06-13 02:51:00,62.0,54.7,30.09,WNW,293,0.0,0.0,77,0.00,,SKC,0.00,VWS V13.01,2013-06-13 07:51:00,
2013-06-13 02:56:00,61.9,54.6,30.09,NW,309,12.0,12.0,77,0.00,,SKC,0.00,VWS V13.01,2013-06-13 07:56:00,
2013-06-13 03:01:00,61.9,54.6,30.09,NW,322,0.0,0.0,77,0.00,,SKC,0.00,VWS V13.01,2013-06-13 08:01:00,
2013-06-13 03:06:00,61.9,54.6,30.09,NW,308,2.0,5.0,77,0.00,,SKC,0.00,VWS V13.01,2013-06-13 08:06:00,
2013-06-13 03:11:00,61.9,54.6,30.09,WNW,297,0.0,5.0,77,0.00,,SKC,0.00,VWS V13.01,2013-06-13 08:11:00,
2013-06-13 03:16:00,61.7,54.8,30.09,WNW,287,0.0,0.0,78,0.00,,SKC,0.00,VWS V13.01,2013-06-13 08:16:00,
2013-06-13 03:21:00,61.6,54.7,30.09,WNW,300,0.0,0.0,78,0.00,,SKC,0.00,VWS V13.01,2013-06-13 08:21:00,
2013-06-13 03:26:00,61.4,54.5,30.09,NW,313,0.0,0.0,78,0.00,,SKC,0.00,VWS V13.01,2013-06-13 08:26:00,
2013-06-13 03:31:00,61.4,54.5,30.09,NW,315,0.0,0.0,78,0.00,,SKC,0.00,VWS V13.01,2013-06-13 08:31:00,
2013-06-13 03:36:00,61.2,54.3,30.09,NW,318,0.0,1.0,78,0.00,,SKC,0.00,VWS V13.01,2013-06-13 08:36:00,
2013-06-13 03:41:00,61.1,54.5,30.08,NW,318,0.0,0.0,79,0.00,,SKC,0.00,VWS V13.01,2013-06-13 08:41:00,
2013-06-13 03:46:00,60.9,54.3,30.09,NW,317,0.0,0.0,79,0.00,,SKC,0.00,VWS V13.01,2013-06-13 08:46:00,
2013-06-13 03:51:00,60.8,54.3,30.08,NW,317,0.0,0.0,79,0.00,,SKC,0.00,VWS V13.01,2013-06-13 08:51:00,
2013-06-13 03:56:00,60.7,54.5,30.08,NW,320,0.0,0.0,80,0.00,,SKC,0.00,VWS V13.01,2013-06-13 08:56:00,
2013-06-13 04:01:00,60.6,54.4,30.08,NW,319,0.0,0.0,80,0.00,,SKC,0.00,VWS V13.01,2013-06-13 09:01:00,
2013-06-13 04:06:00,60.5,54.3,30.08,NW,319,0.0,0.0,80,0.00,,SKC,0.00,VWS V13.01,2013-06-13 09:06:00,
2013-06-13 04:11:00,60.4,54.2,30.08,NW,321,0.0,0.0,80,0.00,,SKC,0.00,VWS V13.01,2013-06-13 09:11:00,
2013-06-13 04:16:00,60.3,54.1,30.08,NW,321,0.0,0.0,80,0.00,,SKC,0.00,VWS V13.01,2013-06-13 09:16:00,
2013-06-13 04:21:00,60.2,54.4,30.08,NW,322,0.0,0.0,81,0.00,,SKC,0.00,VWS V13.01,2013-06-13 09:21:00,
2013-06-13 04:27:00,60.2,54.4,30.08,NW,324,0.0,0.0,81,0.00,,SKC,0.00,VWS V13.01,2013-06-13 09:27:00,
2013-06-13 04:32:00,60.1,54.3,30.08,NNW,346,0.0,0.0,81,0.00,,SKC,0.00,VWS V13.01,2013-06-13 09:32:00,
2013-06-13 04:37:00,60.1,54.3,30.08,NNW,346,0.0,0.0,81,0.00,,SKC,0.00,VWS V13.01,2013-06-13 09:37:00,
2013-06-13 04:42:00,60.0,54.2,30.08,NNW,346,0.0,0.0,81,0.00,,SKC,0.00,VWS V13.01,2013-06-13 09:42:00,
2013-06-13 04:47:00,59.9,54.1,30.08,NNW,330,0.0,0.0,81,0.00,,SKC,0.00,VWS V13.01,2013-06-13 09:47:00,
2013-06-13 04:52:00,59.9,54.1,30.08,NW,326,0.0,0.0,81,0.00,,SKC,0.00,VWS V13.01,2013-06-13 09:52:00,
2013-06-13 04:57:00,59.8,54.0,30.08,NNW,330,0.0,0.0,81,0.00,,SKC,0.00,VWS V13.01,2013-06-13 09:57:00,
2013-06-13 05:02:00,59.7,54.2,30.07,NNW,330,0.0,0.0,82,0.00,,SKC,0.00,VWS V13.01,2013-06-13 10:02:00,
2013-06-13 05:07:00,59.6,54.1,30.07,NNW,338,0.0,0.0,82,0.00,,SKC,0.00,VWS V13.01,2013-06-13 10:07:00,
2013-06-13 05:13:00,59.5,54.0,30.08,NNW,338,0.0,0.0,82,0.00,,SKC,0.00,VWS V13.01,2013-06-13 10:13:00,
2013-06-13 05:18:00,59.4,53.9,30.08,NNW,338,0.0,0.0,82,0.00,,SKC,0.00,VWS V13.01,2013-06-13 10:18:00,
2013-06-13 05:23:00,59.3,53.8,30.09,NNW,338,0.0,0.0,82,0.00,,SKC,0.00,VWS V13.01,2013-06-13 10:23:00,
2013-06-13 05:28:00,59.2,53.7,30.09,NNW,338,0.0,0.0,82,0.00,,SKC,0.00,VWS V13.01,2013-06-13 10:28:00,
2013-06-13 05:33:00,59.0,53.8,30.10,NNW,338,0.0,0.0,83,0.00,,SKC,0.00,VWS V13.01,2013-06-13 10:33:00,
2013-06-13 05:38:00,58.9,53.8,30.10,NNW,338,0.0,0.0,83,0.00,,SKC,0.00,VWS V13.01,2013-06-13 10:38:00,
2013-06-13 05:43:00,58.9,53.8,30.10,NNW,338,0.0,0.0,83,0.00,,SKC,0.00,VWS V13.01,2013-06-13 10:43:00,
2013-06-13 05:48:00,58.8,53.7,30.11,NNW,338,0.0,0.0,83,0.00,,SKC,0.00,VWS V13.01,2013-06-13 10:48:00,
2013-06-13 05:53:00,58.7,53.6,30.12,NNW,338,0.0,0.0,83,0.00,,SKC,0.00,VWS V13.01,2013-06-13 10:53:00,
2013-06-13 05:58:00,58.6,53.8,30.12,NNW,338,0.0,0.0,84,0.00,,SKC,0.00,VWS V13.01,2013-06-13 10:58:00,
2013-06-13 06:03:00,58.5,53.7,30.13,NNW,338,0.0,0.0,84,0.00,,SKC,0.00,VWS V13.01,2013-06-13 11:03:00,
2013-06-13 06:08:00,58.5,54.0,30.13,NNW,337,0.0,0.0,85,0.00,,SKC,0.00,VWS V13.01,2013-06-13 11:08:00,
2013-06-13 06:13:00,58.5,54.0,30.13,NNW,337,0.0,0.0,85,0.00,,SKC,0.00,VWS V13.01,2013-06-13 11:13:00,
2013-06-13 06:18:00,58.5,54.0,30.12,NNW,337,0.0,0.0,85,0.00,,SKC,0.00,VWS V13.01,2013-06-13 11:18:00,
2013-06-13 06:23:00,58.5,54.0,30.12,NNW,337,0.0,0.0,85,0.00,,SKC,0.00,VWS V13.01,2013-06-13 11:23:00,
2013-06-13 06:28:00,58.6,54.1,30.12,NNW,337,0.0,1.0,85,0.00,,SKC,0.00,VWS V13.01,2013-06-13 11:28:00,
2013-06-13 06:33:00,58.8,54.3,30.12,North,8,1.0,2.0,85,0.00,,SKC,0.00,VWS V13.01,2013-06-13 11:33:00,
2013-06-13 06:38:00,59.1,54.6,30.12,NNE,26,0.0,0.0,85,0.00,,SKC,0.00,VWS V13.01,2013-06-13 11:38:00,
2013-06-13 06:43:00,59.4,54.9,30.12,NNE,22,0.0,0.0,85,0.00,,SKC,0.00,VWS V13.01,2013-06-13 11:43:00,
2013-06-13 06:48:00,59.6,54.8,30.12,NW,313,0.0,5.0,84,0.00,,SKC,0.00,VWS V13.01,2013-06-13 11:48:00,
2013-06-13 06:53:00,59.8,54.6,30.13,WNW,292,0.0,0.0,83,0.00,,SKC,0.00,VWS V13.01,2013-06-13 11:53:00,
2013-06-13 06:58:00,60.2,55.0,30.13,WNW,297,0.0,0.0,83,0.00,,SKC,0.00,VWS V13.01,2013-06-13 11:58:00,
2013-06-13 07:03:00,60.5,55.0,30.12,NW,314,0.0,0.0,82,0.00,,SKC,0.00,VWS V13.01,2013-06-13 12:03:00,
2013-06-13 07:08:00,61.0,55.5,30.12,NNW,334,0.0,0.0,82,0.00,,SKC,0.00,VWS V13.01,2013-06-13 12:08:00,
2013-06-13 07:13:00,61.5,55.6,30.13,North,354,4.0,6.0,81,0.00,,SKC,0.00,VWS V13.01,2013-06-13 12:13:00,
2013-06-13 07:18:00,61.8,55.6,30.13,NNW,347,0.0,4.0,80,0.00,,SKC,0.00,VWS V13.01,2013-06-13 12:18:00,
2013-06-13 07:23:00,62.0,55.4,30.14,NNW,347,0.0,0.0,79,0.00,,SKC,0.00,VWS V13.01,2013-06-13 12:23:00,
2013-06-13 07:28:00,62.3,55.7,30.13,North,349,0.0,0.0,79,0.00,,SKC,0.00,VWS V13.01,2013-06-13 12:28:00,
2013-06-13 07:33:00,62.7,55.8,30.13,North,353,0.0,0.0,78,0.00,,SKC,0.00,VWS V13.01,2013-06-13 12:33:00,
2013-06-13 07:38:00,63.3,56.3,30.12,North,353,0.0,0.0,78,0.00,,SKC,0.00,VWS V13.01,2013-06-13 12:38:00,
2013-06-13 07:43:00,64.0,56.3,30.13,North,353,2.0,5.0,76,0.00,,SKC,0.00,VWS V13.01,2013-06-13 12:43:00,
2013-06-13 07:49:00,64.7,56.2,30.13,North,8,1.0,4.0,74,0.00,,SKC,0.00,VWS V13.01,2013-06-13 12:49:00,
2013-06-13 07:54:00,65.0,56.2,30.12,North,3,0.0,4.0,73,0.00,,SKC,0.00,VWS V13.01,2013-06-13 12:54:00,
2013-06-13 07:59:00,65.2,56.3,30.12,NNE,22,4.0,7.0,73,0.00,,SKC,0.00,VWS V13.01,2013-06-13 12:59:00,
2013-06-13 08:04:00,65.6,56.3,30.13,NNE,19,0.0,0.0,72,0.00,,SKC,0.00,VWS V13.01,2013-06-13 13:04:00,
2013-06-13 08:09:00,65.8,56.2,30.12,North,8,3.0,5.0,71,0.00,,SKC,0.00,VWS V13.01,2013-06-13 13:09:00,
2013-06-13 08:14:00,66.0,56.7,30.13,North,358,0.0,0.0,72,0.00,,SKC,0.00,VWS V13.01,2013-06-13 13:14:00,
2013-06-13 08:19:00,66.3,56.6,30.13,NNE,33,2.0,7.0,71,0.00,,SKC,0.00,VWS V13.01,2013-06-13 13:19:00,
2013-06-13 08:24:00,66.5,56.8,30.13,NE,55,4.0,4.0,71,0.00,,SKC,0.00,VWS V13.01,2013-06-13 13:24:00,
2013-06-13 08:29:00,66.7,57.0,30.13,NNE,25,4.0,4.0,71,0.00,,SKC,0.00,VWS V13.01,2013-06-13 13:29:00,
2013-06-13 08:34:00,66.9,56.8,30.14,North,8,5.0,5.0,70,0.00,,SKC,0.00,VWS V13.01,2013-06-13 13:34:00,
2013-06-13 08:39:00,67.2,57.1,30.13,NNE,20,5.0,6.0,70,0.00,,SKC,0.00,VWS V13.01,2013-06-13 13:39:00,
2013-06-13 08:44:00,67.4,56.9,30.13,North,3,0.0,0.0,69,0.00,,SKC,0.00,VWS V13.01,2013-06-13 13:44:00,
2013-06-13 08:49:00,67.8,56.9,30.13,North,8,2.0,3.0,68,0.00,,SKC,0.00,VWS V13.01,2013-06-13 13:49:00,
2013-06-13 08:54:00,68.4,56.6,30.14,NNW,335,0.0,7.0,66,0.00,,SKC,0.00,VWS V13.01,2013-06-13 13:54:00,
2013-06-13 08:59:00,68.6,56.8,30.14,North,349,0.0,0.0,66,0.00,,SKC,0.00,VWS V13.01,2013-06-13 13:59:00,
2013-06-13 09:04:00,68.8,57.4,30.14,NE,38,4.0,6.0,67,0.00,,SKC,0.00,VWS V13.01,2013-06-13 14:04:00,
2013-06-13 09:09:00,69.4,56.7,30.14,NNE,26,0.0,0.0,64,0.00,,SKC,0.00,VWS V13.01,2013-06-13 14:09:00,
2013-06-13 09:14:00,70.0,57.3,30.14,NNE,12,0.0,0.0,64,0.00,,SKC,0.00,VWS V13.01,2013-06-13 14:14:00,
2013-06-13 09:19:00,70.6,57.4,30.14,NNE,12,0.0,0.0,63,0.00,,SKC,0.00,VWS V13.01,2013-06-13 14:19:00,
2013-06-13 09:24:00,71.1,57.0,30.13,NNE,23,0.0,0.0,61,0.00,,SKC,0.00,VWS V13.01,2013-06-13 14:24:00,
2013-06-13 09:29:00,71.6,57.5,30.13,NE,35,0.0,6.0,61,0.00,,SKC,0.00,VWS V13.01,2013-06-13 14:29:00,
2013-06-13 09:34:00,72.1,57.0,30.13,NE,45,3.0,6.0,59,0.00,,SKC,0.00,VWS V13.01,2013-06-13 14:34:00,
2013-06-13 09:39:00,72.6,57.0,30.13,NE,36,0.0,6.0,58,0.00,,SKC,0.00,VWS V13.01,2013-06-13 14:39:00,
2013-06-13 09:44:00,73.1,57.5,30.13,NE,45,0.0,2.0,58,0.00,,SKC,0.00,VWS V13.01,2013-06-13 14:44:00,
2013-06-13 09:49:00,73.8,57.6,30.13,NE,49,3.0,4.0,57,0.00,,SKC,0.00,VWS V13.01,2013-06-13 14:49:00,
2013-06-13 09:54:00,74.3,57.1,30.13,NE,37,0.0,0.0,55,0.00,,SKC,0.00,VWS V13.01,2013-06-13 14:54:00,
2013-06-13 09:59:00,74.7,58.0,30.13,NE,46,1.0,4.0,56,0.00,,SKC,0.00,VWS V13.01,2013-06-13 14:59:00,
2013-06-13 10:04:00,75.3,58.0,30.13,NE,41,0.0,0.0,55,0.00,,SKC,0.00,VWS V13.01,2013-06-13 15:04:00,
2013-06-13 10:09:00,75.9,58.1,30.13,NE,47,0.0,0.0,54,0.00,,SKC,0.00,VWS V13.01,2013-06-13 15:09:00,
2013-06-13 10:14:00,76.3,57.4,30.13,NNE,20,2.0,3.0,52,0.00,,SKC,0.00,VWS V13.01,2013-06-13 15:14:00,
2013-06-13 10:19:00,76.9,58.0,30.13,NNE,31,5.0,8.0,52,0.00,,SKC,0.00,VWS V13.01,2013-06-13 15:19:00,
2013-06-13 10:24:00,77.4,57.9,30.14,NNE,23,0.0,1.0,51,0.00,,SKC,0.00,VWS V13.01,2013-06-13 15:24:00,
2013-06-13 10:29:00,77.3,58.3,30.14,NNE,28,4.0,4.0,52,0.00,,SKC,0.00,VWS V13.01,2013-06-13 15:29:00,
2013-06-13 10:34:00,77.9,57.8,30.13,NNE,16,3.0,4.0,50,0.00,,SKC,0.00,VWS V13.01,2013-06-13 15:34:00,
2013-06-13 10:39:00,78.7,59.1,30.13,NNE,22,0.0,0.0,51,0.00,,SKC,0.00,VWS V13.01,2013-06-13 15:39:00,
2013-06-13 10:44:00,78.8,58.0,30.13,NNE,22,0.0,4.0,49,0.00,,SKC,0.00,VWS V13.01,2013-06-13 15:44:00,
2013-06-13 10:49:00,79.6,59.3,30.13,NE,47,0.0,0.0,50,0.00,,SKC,0.00,VWS V13.01,2013-06-13 15:49:00,
2013-06-13 10:54:00,79.9,60.7,30.13,NE,48,4.0,5.0,52,0.00,,SKC,0.00,VWS V13.01,2013-06-13 15:54:00,
2013-06-13 10:59:00,80.6,57.9,30.13,East,90,2.0,4.0,46,0.00,,SKC,0.00,VWS V13.01,2013-06-13 15:59:00,
2013-06-13 11:04:00,81.3,60.9,30.13,ENE,57,0.0,0.0,50,0.00,,SKC,0.00,VWS V13.01,2013-06-13 16:04:00,
2013-06-13 11:09:00,81.8,58.4,30.13,East,95,7.0,7.0,45,0.00,,SKC,0.00,VWS V13.01,2013-06-13 16:09:00,
2013-06-13 11:14:00,81.6,58.2,30.13,ENE,75,0.0,0.0,45,0.00,,SKC,0.00,VWS V13.01,2013-06-13 16:14:00,
2013-06-13 11:19:00,82.0,58.0,30.13,NE,43,0.0,2.0,44,0.00,,SKC,0.00,VWS V13.01,2013-06-13 16:19:00,
2013-06-13 11:24:00,82.4,58.3,30.13,ENE,63,5.0,11.0,44,0.00,,SKC,0.00,VWS V13.01,2013-06-13 16:24:00,
2013-06-13 11:29:00,83.2,58.4,30.13,ENE,57,6.0,6.0,43,0.00,,SKC,0.00,VWS V13.01,2013-06-13 16:29:00,
2013-06-13 11:34:00,83.6,57.4,30.13,East,81,8.0,12.0,41,0.00,,SKC,0.00,VWS V13.01,2013-06-13 16:34:00,
2013-06-13 11:39:00,83.7,57.5,30.13,East,95,5.0,7.0,41,0.00,,SKC,0.00,VWS V13.01,2013-06-13 16:39:00,
2013-06-13 11:44:00,83.0,59.5,30.13,East,89,0.0,3.0,45,0.00,,SKC,0.00,VWS V13.01,2013-06-13 16:44:00,
2013-06-13 11:49:00,83.3,57.8,30.13,East,81,0.0,1.0,42,0.00,,SKC,0.00,VWS V13.01,2013-06-13 16:49:00,
2013-06-13 11:54:00,82.0,57.3,30.13,ENE,72,0.0,5.0,43,0.00,,SKC,0.00,VWS V13.01,2013-06-13 16:54:00,
2013-06-13 11:59:00,83.4,58.6,30.13,East,89,4.0,5.0,43,0.00,,SKC,0.00,VWS V13.01,2013-06-13 16:59:00,
2013-06-13 12:04:00,82.8,56.7,30.13,ENE,78,7.0,7.0,41,0.00,,SKC,0.00,VWS V13.01,2013-06-13 17:04:00,
2013-06-13 12:09:00,83.5,58.7,30.13,NNE,32,0.0,4.0,43,0.00,,SKC,0.00,VWS V13.01,2013-06-13 17:09:00,
2013-06-13 12:14:00,84.4,58.2,30.12,NNE,20,1.0,5.0,41,0.00,,SKC,0.00,VWS V13.01,2013-06-13 17:14:00,
2013-06-13 12:19:00,84.5,56.8,30.12,NE,35,0.0,6.0,39,0.00,,SKC,0.00,VWS V13.01,2013-06-13 17:19:00,
2013-06-13 12:24:00,85.0,58.0,30.12,ENE,73,4.0,5.0,40,0.00,,SKC,0.00,VWS V13.01,2013-06-13 17:24:00,
2013-06-13 12:30:00,85.0,57.3,30.12,ENE,59,0.0,0.0,39,0.00,,SKC,0.00,VWS V13.01,2013-06-13 17:30:00,
2013-06-13 12:35:00,85.7,57.9,30.12,NNE,31,0.0,6.0,39,0.00,,SKC,0.00,VWS V13.01,2013-06-13 17:35:00,
2013-06-13 12:40:00,86.0,58.2,30.12,East,82,8.0,8.0,39,0.00,,SKC,0.00,VWS V13.01,2013-06-13 17:40:00,
2013-06-13 12:45:00,85.3,58.3,30.12,East,83,3.0,6.0,40,0.00,,SKC,0.00,VWS V13.01,2013-06-13 17:45:00,
2013-06-13 12:50:00,85.6,58.5,30.12,ENE,66,2.0,7.0,40,0.00,,SKC,0.00,VWS V13.01,2013-06-13 17:50:00,
2013-06-13 12:55:00,86.5,57.9,30.12,NNE,20,0.0,6.0,38,0.00,,SKC,0.00,VWS V13.01,2013-06-13 17:55:00,
2013-06-13 13:00:00,86.9,58.3,30.12,NE,35,0.0,2.0,38,0.00,,SKC,0.00,VWS V13.01,2013-06-13 18:00:00,
2013-06-13 13:05:00,87.4,58.7,30.11,ENE,68,0.0,6.0,38,0.00,,SKC,0.00,VWS V13.01,2013-06-13 18:05:00,
2013-06-13 13:10:00,88.7,57.6,30.11,NNE,24,0.0,0.0,35,0.00,,SKC,0.00,VWS V13.01,2013-06-13 18:10:00,
2013-06-13 13:15:00,89.2,58.0,30.10,East,89,7.0,7.0,35,0.00,,SKC,0.00,VWS V13.01,2013-06-13 18:15:00,
2013-06-13 13:20:00,89.1,57.1,30.11,East,81,4.0,4.0,34,0.00,,SKC,0.00,VWS V13.01,2013-06-13 18:20:00,
2013-06-13 13:25:00,88.4,58.1,30.11,NE,56,4.0,5.0,36,0.00,,SKC,0.00,VWS V13.01,2013-06-13 18:25:00,
2013-06-13 13:30:00,88.2,57.9,30.11,ENE,69,0.0,0.0,36,0.00,,SKC,0.00,VWS V13.01,2013-06-13 18:30:00,
2013-06-13 13:35:00,87.5,55.7,30.11,East,89,0.0,0.0,34,0.00,,SKC,0.00,VWS V13.01,2013-06-13 18:35:00,
2013-06-13 13:40:00,86.7,55.8,30.10,NE,56,0.0,3.0,35,0.00,,SKC,0.00,VWS V13.01,2013-06-13 18:40:00,
2013-06-13 13:46:00,87.5,57.3,30.10,NE,35,0.0,0.0,36,0.00,,SKC,0.00,VWS V13.01,2013-06-13 18:46:00,
2013-06-13 13:51:00,87.0,56.8,30.10,NNE,31,0.0,0.0,36,0.00,,SKC,0.00,VWS V13.01,2013-06-13 18:51:00,
2013-06-13 13:56:00,86.8,58.2,30.09,East,91,6.0,6.0,38,0.00,,SKC,0.00,VWS V13.01,2013-06-13 18:56:00,
2013-06-13 14:01:00,85.5,57.0,30.09,East,80,0.0,6.0,38,0.00,,SKC,0.00,VWS V13.01,2013-06-13 19:01:00,
2013-06-13 14:06:00,85.0,55.8,30.09,East,84,0.0,6.0,37,0.00,,SKC,0.00,VWS V13.01,2013-06-13 19:06:00,
2013-06-13 14:11:00,83.9,55.6,30.08,East,90,4.0,8.0,38,0.00,,SKC,0.00,VWS V13.01,2013-06-13 19:11:00,
2013-06-13 14:16:00,81.8,56.5,30.09,East,89,0.0,0.0,42,0.00,,SKC,0.00,VWS V13.01,2013-06-13 19:16:00,
2013-06-13 14:21:00,82.0,58.6,30.09,East,89,0.0,0.0,45,0.00,,SKC,0.00,VWS V13.01,2013-06-13 19:21:00,
2013-06-13 14:26:00,81.8,56.5,30.10,East,89,0.0,0.0,42,0.00,,SKC,0.00,VWS V13.01,2013-06-13 19:26:00,
2013-06-13 14:31:00,81.4,55.5,30.11,East,90,0.0,0.0,41,0.00,,SKC,0.00,VWS V13.01,2013-06-13 19:31:00,
2013-06-13 14:36:00,80.8,56.9,30.11,East,90,0.0,0.0,44,0.00,,SKC,0.00,VWS V13.01,2013-06-13 19:36:00,
2013-06-13 14:41:00,80.5,56.0,30.11,East,90,0.0,0.0,43,0.00,,SKC,0.00,VWS V13.01,2013-06-13 19:41:00,
2013-06-13 14:46:00,79.9,55.4,30.12,East,93,0.0,0.0,43,0.00,,SKC,0.00,VWS V13.01,2013-06-13 19:46:00,
2013-06-13 14:51:00,79.2,55.4,30.12,East,85,0.0,0.0,44,0.00,,SKC,0.00,VWS V13.01,2013-06-13 19:51:00,
2013-06-13 14:56:00,78.5,55.4,30.13,NW,310,4.0,4.0,45,0.00,,SKC,0.00,VWS V13.01,2013-06-13 19:56:00,
2013-06-13 15:01:00,78.0,54.3,30.12,WNW,299,0.0,0.0,44,0.00,,SKC,0.00,VWS V13.01,2013-06-13 20:01:00,
2013-06-13 15:06:00,77.6,54.6,30.13,WNW,299,0.0,0.0,45,0.00,,SKC,0.00,VWS V13.01,2013-06-13 20:06:00,
2013-06-13 15:11:00,77.3,55.5,30.13,WNW,299,0.0,2.0,47,0.00,,SKC,0.00,VWS V13.01,2013-06-13 20:11:00,
2013-06-13 15:16:00,76.9,55.2,30.14,WNW,299,0.0,1.0,47,0.00,,SKC,0.00,VWS V13.01,2013-06-13 20:16:00,
2013-06-13 15:21:00,76.6,54.9,30.14,WNW,298,0.0,1.0,47,0.00,,SKC,0.00,VWS V13.01,2013-06-13 20:21:00,
2013-06-13 15:26:00,76.2,55.1,30.14,WSW,253,1.0,4.0,48,0.00,,SKC,0.00,VWS V13.01,2013-06-13 20:26:00,
2013-06-13 15:31:00,75.9,56.5,30.13,SSW,209,0.0,0.0,51,0.00,,SKC,0.00,VWS V13.01,2013-06-13 20:31:00,
2013-06-13 15:36:00,75.6,57.3,30.13,SSW,209,0.0,0.0,53,0.00,,SKC,0.00,VWS V13.01,2013-06-13 20:36:00,
2013-06-13 15:41:00,75.5,57.2,30.12,SSW,209,0.0,0.0,53,0.00,,SKC,0.00,VWS V13.01,2013-06-13 20:41:00,
2013-06-13 15:46:00,75.5,60.2,30.11,SSW,209,0.0,0.0,59,0.00,,SKC,0.00,VWS V13.01,2013-06-13 20:46:00,
2013-06-13 15:51:00,74.8,60.0,30.11,SSW,209,0.0,0.0,60,0.00,,SKC,0.00,VWS V13.01,2013-06-13 20:51:00,
2013-06-13 15:56:00,74.1,59.8,30.10,SSW,209,0.0,0.0,61,0.00,,SKC,0.00,VWS V13.01,2013-06-13 20:56:00,
2013-06-13 16:01:00,73.8,60.4,30.12,SSW,209,0.0,0.0,63,0.00,,SKC,0.00,VWS V13.01,2013-06-13 21:01:00,
2013-06-13 16:06:00,73.8,61.3,30.12,SSW,209,0.0,0.0,65,0.00,,SKC,0.00,VWS V13.01,2013-06-13 21:06:00,
2013-06-13 16:11:00,73.7,61.7,30.11,SSW,209,0.0,0.0,66,0.00,,SKC,0.00,VWS V13.01,2013-06-13 21:11:00,
2013-06-13 16:17:00,73.6,62.0,30.10,SSW,209,0.0,0.0,67,0.00,,SKC,0.00,VWS V13.01,2013-06-13 21:17:00,
2013-06-13 16:22:00,73.5,62.3,30.10,SSW,209,0.0,0.0,68,0.00,,SKC,0.00,VWS V13.01,2013-06-13 21:22:00,
2013-06-13 16:27:00,73.2,62.0,30.08,NW,320,0.0,0.0,68,0.00,,SKC,0.00,VWS V13.01,2013-06-13 21:27:00,
2013-06-13 16:32:00,72.9,61.7,30.07,NE,35,0.0,0.0,68,0.00,,SKC,0.00,VWS V13.01,2013-06-13 21:32:00,
2013-06-13 16:37:00,72.6,61.0,30.09,NE,35,0.0,0.0,67,0.00,,SKC,0.00,VWS V13.01,2013-06-13 21:37:00,
2013-06-13 16:43:00,72.1,61.4,30.10,NE,35,0.0,0.0,69,0.00,,SKC,0.00,VWS V13.01,2013-06-13 21:43:00,
2013-06-13 16:48:00,71.8,61.5,30.09,NE,38,0.0,0.0,70,0.00,,SKC,0.00,VWS V13.01,2013-06-13 21:48:00,
2013-06-13 16:53:00,71.6,61.3,30.10,NE,38,0.0,0.0,70,0.00,,SKC,0.00,VWS V13.01,2013-06-13 21:53:00,
2013-06-13 16:59:00,71.5,60.8,30.09,NE,38,0.0,0.0,69,0.00,,SKC,0.00,VWS V13.01,2013-06-13 21:59:00,
2013-06-13 17:05:00,71.7,62.2,30.09,NE,38,0.0,0.0,72,0.00,,SKC,0.00,VWS V13.01,2013-06-13 22:05:00,
2013-06-13 17:10:00,72.2,63.8,30.09,NE,38,0.0,0.0,75,0.00,,SKC,0.00,VWS V13.01,2013-06-13 22:10:00,
2013-06-13 17:15:00,72.5,64.1,30.10,NE,38,0.0,0.0,75,0.00,,SKC,0.00,VWS V13.01,2013-06-13 22:15:00,
2013-06-13 17:20:00,72.8,64.4,30.10,NE,38,0.0,0.0,75,0.00,,SKC,0.00,VWS V13.01,2013-06-13 22:20:00,
2013-06-13 17:25:00,72.9,63.3,30.11,NE,38,0.0,0.0,72,0.00,,SKC,0.00,VWS V13.01,2013-06-13 22:25:00,
2013-06-13 17:30:00,72.8,62.9,30.09,NE,38,0.0,0.0,71,0.00,,SKC,0.00,VWS V13.01,2013-06-13 22:30:00,
2013-06-13 17:35:00,72.9,63.8,30.08,NE,38,0.0,0.0,73,0.00,,SKC,0.00,VWS V13.01,2013-06-13 22:35:00,
2013-06-13 17:40:00,72.9,64.1,30.07,NNE,20,5.0,5.0,74,0.00,,SKC,0.00,VWS V13.01,2013-06-13 22:40:00,
2013-06-13 17:45:00,72.8,62.9,30.05,NE,45,0.0,0.0,71,0.00,,SKC,0.00,VWS V13.01,2013-06-13 22:45:00,
2013-06-13 17:50:00,72.9,63.8,30.06,NE,45,0.0,0.0,73,0.00,,SKC,0.00,VWS V13.01,2013-06-13 22:50:00,
2013-06-13 17:55:00,73.1,64.3,30.05,NE,45,0.0,0.0,74,0.00,,SKC,0.00,VWS V13.01,2013-06-13 22:55:00,
2013-06-13 18:01:00,73.0,63.0,30.05,ENE,59,3.0,5.0,71,0.00,,SKC,0.00,VWS V13.01,2013-06-13 23:01:00,
2013-06-13 18:06:00,73.0,62.2,30.04,ENE,58,3.0,4.0,69,0.00,,SKC,0.00,VWS V13.01,2013-06-13 23:06:00,
2013-06-13 18:11:00,73.0,62.2,30.03,NE,45,1.0,2.0,69,0.00,,SKC,0.00,VWS V13.01,2013-06-13 23:11:00,
2013-06-13 18:16:00,72.9,61.7,30.02,NNE,31,0.0,5.0,68,0.00,,SKC,0.00,VWS V13.01,2013-06-13 23:16:00,
2013-06-13 18:21:00,72.8,61.2,30.02,ENE,60,0.0,7.0,67,0.00,,SKC,0.00,VWS V13.01,2013-06-13 23:21:00,
2013-06-13 18:26:00,72.8,60.8,30.02,ENE,71,0.0,2.0,66,0.00,,SKC,0.00,VWS V13.01,2013-06-13 23:26:00,
2013-06-13 18:31:00,72.8,60.8,30.01,ENE,72,0.0,0.0,66,0.00,,SKC,0.00,VWS V13.01,2013-06-13 23:31:00,
2013-06-13 18:37:00,72.8,59.9,30.01,East,87,3.0,7.0,64,0.00,,SKC,0.00,VWS V13.01,2013-06-13 23:37:00,
2013-06-13 18:42:00,72.8,59.5,30.01,East,81,0.0,6.0,63,0.00,,SKC,0.00,VWS V13.01,2013-06-13 23:42:00,
2013-06-13 18:47:00,72.9,60.0,30.01,East,79,0.0,0.0,64,0.00,,SKC,0.00,VWS V13.01,2013-06-13 23:47:00,
2013-06-13 18:52:00,72.9,60.9,30.01,East,79,0.0,0.0,66,0.00,,SKC,0.00,VWS V13.01,2013-06-13 23:52:00,
2013-06-13 18:57:00,73.1,61.5,30.02,East,79,0.0,0.0,67,0.00,,SKC,0.00,VWS V13.01,2013-06-13 23:57:00,
2013-06-13 19:02:00,73.4,59.6,30.02,East,79,0.0,0.0,62,0.00,,SKC,0.00,VWS V13.01,2013-06-14 00:02:00,
2013-06-13 19:07:00,73.9,60.1,30.02,East,79,0.0,0.0,62,0.00,,SKC,0.00,VWS V13.01,2013-06-14 00:07:00,
2013-06-13 19:12:00,74.3,60.0,30.02,East,79,0.0,0.0,61,0.00,,SKC,0.00,VWS V13.01,2013-06-14 00:12:00,
2013-06-13 19:17:00,74.4,59.2,30.02,East,79,0.0,0.0,59,0.00,,SKC,0.00,VWS V13.01,2013-06-14 00:17:00,
2013-06-13 19:23:00,74.4,60.5,30.01,East,79,0.0,0.0,62,0.00,,SKC,0.00,VWS V13.01,2013-06-14 00:23:00,
2013-06-13 19:28:00,74.4,61.0,30.02,East,79,0.0,0.0,63,0.00,,SKC,0.00,VWS V13.01,2013-06-14 00:28:00,
2013-06-13 19:33:00,74.0,61.5,30.02,East,79,0.0,0.0,65,0.00,,SKC,0.00,VWS V13.01,2013-06-14 00:33:00,
2013-06-13 19:38:00,73.7,61.7,30.02,East,79,0.0,0.0,66,0.00,,SKC,0.00,VWS V13.01,2013-06-14 00:38:00,
2013-06-13 19:43:00,73.6,61.5,30.02,East,79,0.0,0.0,66,0.00,,SKC,0.00,VWS V13.01,2013-06-14 00:43:00,
2013-06-13 19:48:00,73.5,61.9,30.02,East,79,0.0,0.0,67,0.00,,SKC,0.00,VWS V13.01,2013-06-14 00:48:00,
2013-06-13 19:53:00,73.4,61.4,30.02,East,79,0.0,0.0,66,0.00,,SKC,0.00,VWS V13.01,2013-06-14 00:53:00,
2013-06-13 19:58:00,73.4,61.8,30.02,East,79,0.0,0.0,67,0.00,,SKC,0.00,VWS V13.01,2013-06-14 00:58:00,
2013-06-13 20:03:00,73.6,62.0,30.02,East,79,0.0,0.0,67,0.00,,SKC,0.00,VWS V13.01,2013-06-14 01:03:00,
2013-06-13 20:08:00,73.7,62.5,30.02,East,79,0.0,0.0,68,0.00,,SKC,0.00,VWS V13.01,2013-06-14 01:08:00,
2013-06-13 20:13:00,73.8,62.2,30.03,East,79,0.0,0.0,67,0.00,,SKC,0.00,VWS V13.01,2013-06-14 01:13:00,
2013-06-13 20:18:00,73.9,62.3,30.03,East,79,0.0,0.0,67,0.00,,SKC,0.00,VWS V13.01,2013-06-14 01:18:00,
2013-06-13 20:23:00,74.0,62.8,30.02,East,79,0.0,0.0,68,0.00,,SKC,0.00,VWS V13.01,2013-06-14 01:23:00,
2013-06-13 20:28:00,74.0,62.8,30.02,East,79,0.0,0.0,68,0.00,,SKC,0.00,VWS V13.01,2013-06-14 01:28:00,
2013-06-13 20:33:00,74.1,62.9,30.02,East,79,0.0,0.0,68,0.00,,SKC,0.00,VWS V13.01,2013-06-14 01:33:00,
2013-06-13 20:38:00,74.0,62.8,30.02,East,79,0.0,0.0,68,0.00,,SKC,0.00,VWS V13.01,2013-06-14 01:38:00,
2013-06-13 20:43:00,73.9,62.7,30.02,East,79,0.0,0.0,68,0.00,,SKC,0.00,VWS V13.01,2013-06-14 01:43:00,
2013-06-13 20:49:00,73.5,62.3,30.02,East,79,0.0,0.0,68,0.00,,SKC,0.00,VWS V13.01,2013-06-14 01:49:00,
2013-06-13 20:54:00,73.2,62.0,30.02,East,79,0.0,0.0,68,0.00,,SKC,0.00,VWS V13.01,2013-06-14 01:54:00,
2013-06-13 20:59:00,72.8,62.0,30.02,East,79,0.0,0.0,69,0.00,,SKC,0.00,VWS V13.01,2013-06-14 01:59:00,
2013-06-13 21:05:00,72.2,61.9,30.02,East,79,0.0,0.0,70,0.00,,SKC,0.00,VWS V13.01,2013-06-14 02:05:00,
2013-06-13 21:11:00,71.6,61.3,30.02,East,79,0.0,0.0,70,0.00,,SKC,0.00,VWS V13.01,2013-06-14 02:11:00,
2013-06-13 21:16:00,71.1,61.2,30.02,East,79,0.0,0.0,71,0.00,,SKC,0.00,VWS V13.01,2013-06-14 02:16:00,
2013-06-13 21:22:00,70.4,61.3,30.03,East,79,0.0,0.0,73,0.00,,SKC,0.00,VWS V13.01,2013-06-14 02:22:00,
2013-06-13 21:27:00,69.9,60.9,30.03,East,79,0.0,0.0,73,0.00,,SKC,0.00,VWS V13.01,2013-06-14 02:27:00,
2013-06-13 21:32:00,69.5,60.5,30.03,East,79,0.0,0.0,73,0.00,,SKC,0.00,VWS V13.01,2013-06-14 02:32:00,
2013-06-13 21:37:00,69.2,60.2,30.04,East,79,0.0,0.0,73,0.00,,SKC,0.00,VWS V13.01,2013-06-14 02:37:00,
2013-06-13 21:42:00,68.9,60.7,30.04,East,79,0.0,0.0,75,0.00,,SKC,0.00,VWS V13.01,2013-06-14 02:42:00,
2013-06-13 21:47:00,68.6,60.4,30.04,East,79,0.0,0.0,75,0.00,,SKC,0.00,VWS V13.01,2013-06-14 02:47:00,
2013-06-13 21:52:00,68.1,60.3,30.04,East,79,0.0,0.0,76,0.00,,SKC,0.00,VWS V13.01,2013-06-14 02:52:00,
2013-06-13 21:57:00,67.7,60.2,30.05,East,79,0.0,0.0,77,0.00,,SKC,0.00,VWS V13.01,2013-06-14 02:57:00,
2013-06-13 22:02:00,67.4,60.0,30.05,East,79,0.0,0.0,77,0.00,,SKC,0.00,VWS V13.01,2013-06-14 03:02:00,
2013-06-13 22:07:00,67.1,59.7,30.05,East,79,0.0,0.0,77,0.00,,SKC,0.00,VWS V13.01,2013-06-14 03:07:00,
2013-06-13 22:12:00,66.9,59.8,30.05,East,79,0.0,0.0,78,0.00,,SKC,0.00,VWS V13.01,2013-06-14 03:12:00,
2013-06-13 22:17:00,66.6,59.9,30.06,East,79,0.0,0.0,79,0.00,,SKC,0.00,VWS V13.01,2013-06-14 03:17:00,
2013-06-13 22:23:00,66.2,59.9,30.06,East,79,0.0,0.0,80,0.00,,SKC,0.00,VWS V13.01,2013-06-14 03:23:00,
2013-06-13 22:28:00,65.9,59.6,30.07,East,79,0.0,0.0,80,0.00,,SKC,0.00,VWS V13.01,2013-06-14 03:28:00,
2013-06-13 22:34:00,65.6,59.6,30.07,East,79,0.0,0.0,81,0.00,,SKC,0.00,VWS V13.01,2013-06-14 03:34:00,
2013-06-13 22:39:00,65.4,59.4,30.07,East,79,0.0,0.0,81,0.00,,SKC,0.00,VWS V13.01,2013-06-14 03:39:00,
2013-06-13 22:44:00,65.2,59.6,30.06,East,79,0.0,0.0,82,0.00,,SKC,0.00,VWS V13.01,2013-06-14 03:44:00,
2013-06-13 22:49:00,65.0,59.7,30.07,East,79,0.0,0.0,83,0.00,,SKC,0.00,VWS V13.01,2013-06-14 03:49:00,
2013-06-13 22:55:00,64.8,59.5,30.07,East,79,0.0,0.0,83,0.00,,SKC,0.00,VWS V13.01,2013-06-14 03:55:00,
2013-06-13 23:00:00,64.6,59.7,30.07,East,79,0.0,0.0,84,0.00,,SKC,0.00,VWS V13.01,2013-06-14 04:00:00,
2013-06-13 23:01:00,64.6,59.7,30.07,East,79,0.0,0.0,84,0.00,,SKC,0.00,VWS V13.01,2013-06-14 04:01:00,
2013-06-13 23:03:00,64.6,59.7,30.07,East,79,0.0,0.0,84,0.00,,SKC,0.00,VWS V13.01,2013-06-14 04:03:00,
2013-06-13 23:04:00,64.5,59.6,30.07,East,79,0.0,0.0,84,0.00,,SKC,0.00,VWS V13.01,2013-06-14 04:04:00,
2013-06-13 23:06:00,64.5,59.6,30.07,East,79,0.0,0.0,84,0.00,,SKC,0.00,VWS V13.01,2013-06-14 04:06:00,
2013-06-13 23:08:00,64.4,59.5,30.07,East,79,0.0,0.0,84,0.00,,SKC,0.00,VWS V13.01,2013-06-14 04:08:00,
2013-06-13 23:13:00,64.3,59.4,30.07,East,79,0.0,0.0,84,0.00,,SKC,0.00,VWS V13.01,2013-06-14 04:13:00,
2013-06-13 23:18:00,64.1,59.2,30.07,East,79,0.0,0.0,84,0.00,,SKC,0.00,VWS V13.01,2013-06-14 04:18:00,
2013-06-13 23:23:00,64.0,59.4,30.07,East,79,0.0,0.0,85,0.00,,SKC,0.00,VWS V13.01,2013-06-14 04:23:00,
2013-06-13 23:29:00,63.9,59.3,30.07,East,79,0.0,0.0,85,0.00,,SKC,0.00,VWS V13.01,2013-06-14 04:29:00,
2013-06-13 23:35:00,63.7,59.1,30.07,East,79,0.0,0.0,85,0.00,,SKC,0.00,VWS V13.01,2013-06-14 04:35:00,
2013-06-13 23:40:00,63.6,59.0,30.07,East,79,0.0,0.0,85,0.00,,SKC,0.00,VWS V13.01,2013-06-14 04:40:00,
2013-06-13 23:45:00,63.5,59.2,30.07,East,79,0.0,0.0,86,0.00,,SKC,0.00,VWS V13.01,2013-06-14 04:45:00,
2013-06-13 23:50:00,63.4,58.8,30.07,East,79,0.0,0.0,85,0.00,,SKC,0.00,VWS V13.01,2013-06-14 04:50:00,
2013-06-13 23:55:00,63.4,58.8,30.07,East,79,0.0,0.0,85,0.00,,SKC,0.00,VWS V13.01,2013-06-14 04:55:00,